Flag for Austria Weather past 2 weeks in Gänserndorf, Lower Austria, Austria

Now
84 °F

Passing clouds.


Feels Like: 83 °F
Forecast: 66 / 90 °F
Wind: 6 mph from Southeast

Location: Wien / Schwechat-Flughafen

Current Time: Jul 3, 2015 at 2:49:52 PM

Latest Report: Jul 3, 2015 at 2:00 PM


Visibility: 17 mi

Pressure: 30.29 "Hg

Humidity: 36%

Dew point: 54 °F

Location of GänserndorfLocation

Historic Weather in Gänserndorf — Graph

°F

Gänserndorf temperature yesterday

Maximum temperature yesterday: 87 °F (at 6:00 PM)
Minimum temperature yesterday: 62 °F (at 6:00 AM)
Average temperature yesterday: 75 °F

Past Weeks' High & Low Weather Summary

 TemperatureHumidityPressure
High87 °F (Jul 2, 6:00 PM)97% (Jun 25, 3:00 AM)30.31 "Hg (Jun 25, 3:00 AM)
Low47 °F (Jun 25, 5:00 AM)32% (Jun 26, 4:00 PM)29.76 "Hg (Jun 23, 4:00 AM)
Average66 °F63%30.08 "Hg
* Reported Jun 18 2:00 PM — Jul 3 2:00 PM, Gänserndorf, Weather by CustomWeather, © 2015

Note: Actual official high and low records may vary slightly from our data, if they occured in-between our weather recording intervals... More about our weather records

Advertising

Gänserndorf weather history for previous 24 hours

 ConditionsComfort  
Time TempWeatherWind HumidityBarometerVisibility
2:00 PM
Fri, Jul 3
84 °FPassing clouds.6 mph36%30.29 "Hg17 mi
1:00 PM83 °FPassing clouds.6 mph37%30.29 "Hg22 mi
12:00 PM81 °FPassing clouds.6 mph38%30.30 "Hg17 mi
11:00 AM79 °FPassing clouds.7 mph38%30.30 "Hg17 mi
10:00 AM78 °FPassing clouds.7 mph38%30.31 "Hg17 mi
9:00 AM75 °FPassing clouds.6 mph48%30.31 "Hg19 mi
8:00 AM72 °FPassing clouds.6 mph49%30.31 "Hg22 mi
7:00 AM70 °FPassing clouds.3 mph54%30.29 "Hg22 mi
6:00 AM68 °FPassing clouds.N/A60%30.28 "Hg25 mi
4:00 AM64 °FPassing clouds.N/A76%30.26 "Hg15 mi
3:00 AM64 °FPassing clouds.N/A76%30.26 "Hg12 mi
2:00 AM67 °FPassing clouds.N/A68%30.25 "Hg19 mi
1:00 AM69 °FPassing clouds.N/A62%30.24 "Hg22 mi
12:00 AM69 °FPassing clouds.N/A63%30.24 "Hg22 mi
11:00 PM
Thu, Jul 2
72 °FPassing clouds.N/A57%30.24 "Hg16 mi
10:00 PM77 °FPassing clouds.3 mph48%30.22 "Hg19 mi
9:00 PM77 °FPassing clouds.N/A63%30.19 "Hg19 mi
8:00 PM84 °FPassing clouds.N/A42%30.16 "Hg22 mi
7:00 PM86 °FPassing clouds.N/A35%30.16 "Hg19 mi
6:00 PM87 °FPassing clouds.N/A35%30.16 "Hg14 mi
5:00 PM85 °FPassing clouds.N/A35%30.16 "Hg18 mi
4:00 PM87 °FScattered clouds.N/A33%30.17 "Hg22 mi
3:00 PM85 °FScattered clouds.N/A36%30.18 "Hg19 mi
2:00 PM85 °FScattered clouds.3 mph40%30.19 "Hg17 mi
Weather by CustomWeather, © 2015

See weather overviewHow to use our weather pages